Regional Weather Roundup
Issued by NWS Cleveland, OH

Home | Current Version | Previous Version | Graphics & Text | Print | Product List | Glossary On
Versions: 1 2 3 4 5 6 7 8 9 10 11 12 13 14 15 16 17 18 19 20 21 22 23 24 25 26 27 28 29 30 31 32 33 34 35 36 37 38 39 40 41 42 43 44 45 46 47 48 49 50
000
ASUS41 KCLE 231800
RWRCLE
OHIO REGIONAL WEATHER ROUNDUP
NATIONAL WEATHER SERVICE WILMINGTON, OH
200 PM EDT WED MAY 23 2018

NOTE: "FAIR" INDICATES FEW OR NO CLOUDS BELOW 12,000 FEET WITH NO
SIGNIFICANT WEATHER AND/OR OBSTRUCTIONS TO VISIBILITY.

OHZ001>008-015>018-024>027-034-035-043-044-231900-
   NORTHWEST OHIO

CITY           SKY/WX    TMP DP  RH WIND       PRES   REMARKS
DEFIANCE       FAIR      74  55  51 SE7       30.19F
FINDLAY        FAIR      74  53  48 NE7       30.18S
TOLEDO EXPRESS FAIR      77  51  40 VRB6      30.17F
TOLEDO EXEC    FAIR      75  49  39 E6        30.18F
LIMA           FAIR      72  56  57 E9        30.19S
$$

OHZ009>014-019>023-028>033-038-089-231900-
   NORTHEAST OHIO

CITY           SKY/WX    TMP DP  RH WIND       PRES   REMARKS
CLE-HOPKINS    FAIR      71  51  49 VRB3      30.20F
CLE-LAKEFRONT  FAIR      61  54  77 W8        30.18F
CUY CO. ARPT   MOSUNNY   72  55  56 NW7       30.19F
LORAIN-ELYRIA  FAIR      70  49  47 NE9G18    30.19F
ASHTABULA      FAIR      69  53  56 NW6       30.17F
AKRON-CANTON   PTSUNNY   70  54  56 NE8       30.18F
WOOSTER        NOT AVBL
MANSFIELD      FAIR      71  54  54 N9        30.19F
YOUNGSTOWN     FAIR      68  53  58 NW9       30.17S
$$

OHZ042-051>053-060>062-070>072-077>081-231900-
  SOUTHWEST OHIO

CITY           SKY/WX    TMP DP  RH WIND       PRES   REMARKS
CINC-COVINGTON FAIR      78  58  49 VRB5      30.16S
CINC-LUNKEN    FAIR      78  62  57 NE9       30.15F
HAMILTON       FAIR      77  58  51 VRB7      30.17F
DAYTON         NOT AVBL
WRIGHT-PAT AFB FAIR      75  56  51 NE6G22    30.17F
DAYTON GENERAL FAIR      77  55  46 N5        30.17S
WILMINGTON     FAIR      73  60  63 NE8       30.17F
$$

OHZ036-037-039>041-045>050-054>059-063>069-073>076-082>088-231900-
  CENTRAL AND SOUTHEAST OHIO

CITY           SKY/WX    TMP DP  RH WIND       PRES   REMARKS
COLUMBUS       FAIR      74  57  55 NE7       30.16F
OSU AIRPORT    FAIR      73  57  57 NE6       30.17F
BOLTON FIELD   SUNNY     72  59  64 N5        30.18S
RICKENBACK AFB PTSUNNY   72  58  61 MISG      30.17R
NEWARK         FAIR      72  57  59 NE10      30.17F
MARION         FAIR      73  55  53 NE14      30.19F
LANCASTER      FAIR      71  59  65 NE10G16   30.18S
ZANESVILLE     PTSUNNY   69  56  62 NE8       30.18F
NEW PHILLY     PTSUNNY   70  56  61 NE9       30.18S
$$




USA.gov is the U.S. government's official web portal to all federal, state and local government web resources and services.